Location: Bidart
(43.4376°N, 1.5913°W)
Time: 10:56:37
(UTC+00:00)

USA 229 DEB - Pass Details

Date: 24 April 2026
Orbit: 844 x 1364 km, 63.4° (Epoch: 10 January)

Event Time Altitude Azimuth Distance (km) Brightness Sun altitude
Rises 02:05:58 0° 308° (NW) 4,141 6.8 -27.3°
Reaches altitude 10° 02:09:54 10° 289° (WNW) 3,258 6.1 -26.9°
Enters shadow 02:10:59 12° 282° (WNW) 3,090 5.9 -26.8°
